Weather History for KSGJ - March, 2013

Change the Weather History Date:

Friday, March 1, 2013

  Actual Average Record
Temperature  
Mean Temperature 54 °F -  
Max Temperature 59 °F 67 °F 80 °F (1981)
Min Temperature 48 °F 50 °F 31 °F (1984)
Degree Days  
Heating Degree Days 10    
Growing Degree Days 4 (Base 50)    
Moisture  
Dew Point 36 °F    
Average Humidity 50    
Maximum Humidity 61    
Minimum Humidity 40    
Precipitation  
Precipitation 0.00 in - - ()
Sea Level Pressure  
Sea Level Pressure 29.98 in    
Wind  
Wind Speed 7 mph (NW)    
Max Wind Speed 13 mph    
Max Gust Speed 17 mph    
Visibility 9 miles    
Events      
Averages and records for this station are not official NWS values.
T = Trace of Precipitation, MM = Missing Value Source: NWS Daily Summary

Daily Weather History Graph

Daily Weather History Graph

Search for Another Location

Airport or City:

Trip Planner

Search our weather history database for the weather conditions in past years. The results will help you decide how hot, cold, wet, or windy it might be!

Date:

Astronomy

Mar. 01, 2013 Rise Set
Actual Time 6:50 AM EST 6:24 PM EST
Civil Twilight 6:26 AM EST 6:48 PM EST
Nautical Twilight 5:59 AM EST 7:16 PM EST
Astronomical Twilight 5:31 AM EST 7:44 PM EST
Moon 10:32 PM EST (3/1) 8:58 AM EST (3/1)
Length of Visible Light 12h 21m
Length of Day
11h 33m
Waning Gibbous, 83% of the Moon is Illuminated
Mar 1
Waning Gibbous
Mar 4
Last Quarter
Mar 11
New
Mar 19
First Quarter
Mar 27
Full

Hourly Weather History & Observations

Time (EST) Temp. Dew Point Humidity Pressure Visibility Wind Dir Wind Speed Gust Speed Precip Events Conditions
12:58 AM 54.0 °F 36.0 °F 51% 29.96 in 10.0 mi West 4.6 mph - N/A   Clear
1:58 AM 54.0 °F 34.0 °F 47% 29.96 in 10.0 mi WNW 5.8 mph - N/A   Clear
4:58 AM 52.0 °F 36.0 °F 54% 29.95 in 10.0 mi NW 8.1 mph - N/A   Clear
5:58 AM 52.0 °F 36.0 °F 54% 29.96 in 10.0 mi NNW 10.4 mph - N/A   Clear
6:58 AM 51.1 °F 37.0 °F 59% 29.97 in 10.0 mi NNW 10.4 mph - N/A   Clear
7:58 AM 50.0 °F 34.0 °F 54% 30.00 in 10.0 mi NNW 9.2 mph - N/A   Mostly Cloudy
8:58 AM 51.1 °F 34.0 °F 52% 30.02 in 10.0 mi NNW 9.2 mph - N/A   Clear
9:58 AM 54.0 °F 34.0 °F 47% 30.01 in 10.0 mi NNW 11.5 mph - N/A   Clear
10:58 AM 55.9 °F 33.1 °F 42% 30.01 in 10.0 mi WNW 12.7 mph 17.3 mph N/A   Clear
11:58 AM 57.0 °F 33.1 °F 40% 29.99 in 3.0 mi NNW 6.9 mph - N/A   Haze
12:58 PM 57.9 °F 34.0 °F 41% 29.97 in 3.0 mi Variable 4.6 mph - N/A   Haze
1:58 PM 57.9 °F 35.1 °F 42% 29.94 in 7.0 mi Calm Calm - N/A   Clear
3:58 PM 59.0 °F 35.1 °F 41% 29.92 in 10.0 mi NW 8.1 mph - N/A   Clear
4:58 PM 57.9 °F 37.0 °F 46% 29.93 in 10.0 mi NW 4.6 mph - N/A   Clear
5:58 PM 57.0 °F 37.9 °F 49% 29.94 in 10.0 mi Calm Calm - N/A   Clear
6:58 PM 55.0 °F 39.0 °F 55% 29.97 in 10.0 mi NW 6.9 mph - N/A   Clear
7:58 PM 54.0 °F 36.0 °F 51% 29.98 in 10.0 mi WNW 6.9 mph - N/A   Clear
8:58 PM 52.0 °F 37.0 °F 57% 30.00 in 10.0 mi NW 8.1 mph - N/A   Clear
9:58 PM 51.1 °F 37.0 °F 59% 30.01 in 10.0 mi NW 10.4 mph - N/A   Clear
10:58 PM 50.0 °F 35.1 °F 57% 30.02 in 10.0 mi WNW 8.1 mph - N/A   Clear
11:58 PM 48.9 °F 36.0 °F 61% 30.02 in 10.0 mi WNW 8.1 mph - N/A   Clear